Temperature
18 19 19 19 19 19 18 18 18 19 18 19 18 17 17 18 18 18 19 19 19 19 19 19 19 18 18 18 18 18 17 17 17 17 16 16 16 16 16 16 16 16 16 16
18 18 18 19 19 19 19 19 18 19 19 18 17 18 17 17 17 17 18 18 19 19 19 19 19 18 18 18 18 17 17 17 17 16 16 16 16 16 16 16 16 16 15 15
15 17 18 17 18 19 19 19 18 19 19 17 16 16 16 16 17 17 17 18 18 18 18 18 18 18 18 18 17 17 17 16 16 16 16 15 15 15 15 15 15 15 15 14
14 16 16 17 17 18 18 18 18 18 17 16 16 15 16 16 16 16 16 16 17 17 17 17 17 17 17 17 17 16 16 15 15 15 15 15 15 14 14 14 14 14 13 13
13 14 15 17 17 17 17 17 17 17 16 15 15 14 14 15 16 16 15 16 16 16 16 15 15 15 16 15 15 15 15 14 14 14 14 14 14 13 13 13 13 13 12 12
12 14 15 16 16 16 16 16 16 16 15 15 15 15 14 14 15 14 14 15 15 15 14 15 14 14 15 14 14 14 13 13 13 13 13 13 13 12 12 12 12 12 11 11
13 13 14 15 15 16 16 16 15 15 15 15 14 14 13 13 13 14 14 14 14 14 14 13 13 14 14 13 13 13 12 12 12 12 12 12 12 11 11 11 11 11 11 10
12 13 14 15 15 15 14 14 15 14 14 14 13 12 12 12 12 13 13 13 13 13 13 13 13 13 13 12 12 12 12 12 12 11 11 11 11 11 11 10 10 10 10 10
12 13 14 14 14 14 14 14 14 14 14 13 12 11 11 11 12 12 12 12 12 12 12 12 12 12 12 11 11 11 11 11 11 11 11 11 11 10 10 10 10 10 9 9
12 13 13 14 14 14 14 14 14 13 13 12 11 11 10 11 11 11 12 12 12 12 12 11 11 11 11 11 11 11 11 11 11 10 10 10 10 10 10 9 9 9 9 8
12 13 13 14 13 13 13 13 13 12 12 11 11 10 10 10 11 11 11 11 11 11 11 11 11 11 10 10 10 10 10 10 10 10 10 10 9 9 9 9 8 8 8 7
13 13 12 12 13 13 13 12 12 11 11 11 11 11 10 10 11 11 11 11 11 11 10 10 10 10 10 10 10 10 10 10 9 9 9 9 9 8 8 8 7 7 7 6
13 13 12 12 12 12 12 12 11 11 11 11 11 11 11 11 11 11 11 11 11 10 10 10 10 10 10 10 10 9 9 9 9 9 8 8 8 8 7 7 6 6 5 5
13 13 12 11 11 12 12 11 11 11 11 11 11 11 11 11 11 11 11 11 11 10 10 10 10 10 9 9 9 9 9 8 8 8 8 7 7 6 6 6 5 5 4 4
13 13 12 11 11 11 11 11 11 11 11 11 11 11 11 11 11 11 11 11 10 10 10 10 9 9 9 9 9 8 8 8 7 7 7 6 6 5 5 5 4 4 3 3
12 12 12 11 11 11 11 11 11 11 11 11 11 11 11 11 11 11 11 10 10 10 9 9 9 9 8 8 8 8 7 7 6 6 6 5 5 4 4 3 3 3 2 2
12 11 11 11 11 11 11 12 12 11 11 11 11 11 11 11 11 10 10 10 10 10 9 9 9 8 8 7 7 7 6 6 5 5 5 4 4 3 3 2 2 2 1 1
13 12 12 12 11 11 11 11 12 12 12 11 11 11 11 11 11 10 10 10 9 9 9 8 8 7 7 7 6 6 5 5 5 4 4 3 3 2 2 2 1 1 1 1
12 12 12 12 12 12 12 12 12 11 11 11 11 11 11 10 10 10 9 9 9 9 8 7 7 6 6 6 5 5 5 4 4 3 3 2 2 2 1 1 1 1 0 0
12 12 12 12 12 12 12 11 11 11 11 11 11 11 10 10 9 9 9 8 8 8 7 6 6 6 5 5 5 4 4 3 3 2 2 2 1 1 1 0 0 0 -0 -0
11 11 11 11 11 11 11 11 11 11 11 10 10 10 10 9 9 8 8 8 7 6 6 6 5 5 5 4 4 3 3 3 2 2 1 1 1 1 0 0 0 -0 -0 -1
11 11 11 11 11 11 11 11 11 10 10 10 9 9 9 8 8 8 7 7 6 6 5 5 5 4 4 4 3 3 2 2 2 1 1 1 1 0 0 -0 -0 -1 -1 -1
11 11 11 11 11 10 10 10 10 10 9 9 9 8 8 8 7 7 7 6 6 5 5 5 4 4 3 3 3 2 2 2 1 1 1 1 0 0 -0 -0 -0 -1 -1 -1
11 11 11 10 10 10 10 10 9 9 9 9 8 8 8 7 7 6 6 6 5 5 4 4 4 3 3 3 2 2 2 1 1 1 1 0 0 0 -0 -0 -0 -1 -1 -1
10 10 10 10 10 10 9 9 9 9 8 8 8 7 7 7 6 6 6 5 5 4 4 4 3 3 3 2 2 2 1 1 1 1 1 0 0 0 -0 -0 -1 -1 -1 -1
10 10 10 10 10 9 9 9 8 8 8 8 7 7 6 6 6 5 5 5 4 4 4 3 3 3 3 2 2 2 1 1 1 1 1 1 0 0 -0 -0 -0 -1 -1 -1
10 10 9 9 9 9 9 8 8 8 8 7 7 6 6 6 5 5 5 4 4 4 3 3 3 3 2 2 2 2 1 1 1 1 1 1 0 0 0 -0 -0 -1 -1 -1
Wind_Speed
6 6 4 6 7 7 8 9 9 9 9 11 9 7 7 6 8 8 7 7 7 6 5 6 6 6 6 6 7 7 7 7 5 5 5 5 4 3 3 3 3 3 2 1
4 7 7 7 9 10 10 8 9 8 10 7 3 5 6 7 9 10 8 8 7 6 6 6 6 6 7 7 7 8 8 7 6 6 6 5 5 4 4 3 3 4 4 3
5 5 3 8 11 12 8 7 9 11 10 4 4 6 7 7 8 9 9 8 8 7 7 7 7 7 8 8 9 9 9 8 7 7 6 5 5 6 6 5 6 6 6 6
3 1 8 9 5 6 8 8 8 6 4 6 6 7 6 5 8 9 9 9 9 9 9 8 8 9 9 10 10 11 10 9 8 8 8 7 7 7 6 6 6 7 7 7
3 5 8 7 3 3 4 7 5 6 6 9 12 10 6 6 8 10 10 10 9 10 10 10 10 10 12 12 12 12 10 9 8 8 8 8 8 7 6 7 8 8 7 8
3 4 6 7 3 1 1 7 4 5 9 12 11 7 5 7 11 13 12 11 11 12 13 12 10 11 14 13 12 11 9 9 8 8 9 8 8 7 6 7 8 8 9 8
5 6 8 5 3 1 4 6 3 4 8 9 4 5 12 14 14 14 14 13 12 13 13 11 10 13 15 13 11 9 9 10 10 9 9 8 7 7 7 8 8 8 9 7
3 4 8 3 2 3 5 4 2 2 5 9 13 18 17 16 16 16 15 14 13 14 13 10 10 14 14 11 8 9 10 10 9 8 7 7 8 8 7 7 8 7 6 6
6 7 6 4 6 7 5 4 1 3 9 17 18 18 18 17 16 16 15 13 11 14 13 10 9 12 13 7 7 10 11 10 9 9 8 7 7 7 6 5 5 4 4 4
5 8 7 7 6 6 4 3 4 8 13 17 19 19 18 17 16 15 14 13 12 13 13 10 9 10 9 7 8 11 10 8 7 8 8 8 7 5 5 4 4 4 3 3
6 7 6 5 4 2 3 7 11 12 14 17 21 19 18 16 15 14 13 11 11 12 12 10 9 9 7 7 9 10 9 7 7 7 7 7 7 6 5 4 3 3 2 2
5 5 3 3 4 3 8 10 13 16 17 15 17 19 17 14 13 13 13 11 11 11 11 9 9 8 7 6 8 9 7 6 5 5 5 6 7 8 12 10 11 10 8 5
3 2 1 2 5 7 10 12 14 15 18 18 15 15 16 13 11 12 12 11 11 10 10 9 9 8 6 5 7 8 7 5 4 5 5 5 5 6 5 7 10 11 11 10
2 3 4 5 6 10 14 15 15 16 16 16 14 14 14 14 13 12 11 10 10 10 10 9 9 7 5 5 7 7 7 7 6 4 4 4 4 4 4 4 3 4 6 8
4 5 6 7 10 12 13 15 17 16 16 15 13 13 14 14 13 11 10 11 12 11 9 9 8 6 4 6 8 8 7 5 5 5 5 5 5 5 4 4 4 3 3 5
8 10 11 12 12 12 13 15 16 15 14 14 13 12 13 13 12 11 10 10 11 10 8 8 7 4 4 7 8 7 6 9 8 6 5 5 5 4 4 4 3 3 3 4
9 9 10 11 12 12 12 12 13 13 13 13 13 13 13 13 13 11 10 10 10 9 7 7 6 5 6 7 8 6 6 7 9 7 5 4 4 3 3 3 2 3 3 4
8 8 9 11 12 13 12 12 13 13 12 12 12 12 12 12 11 10 10 10 11 10 8 6 6 7 7 7 6 6 6 5 5 5 4 4 3 3 2 2 2 3 3 4
12 12 12 12 12 12 12 12 11 11 11 11 12 11 10 10 10 10 10 10 10 8 5 5 9 8 7 7 8 6 6 6 5 4 4 4 3 3 2 2 3 3 4 4
13 13 13 13 12 12 12 11 12 11 10 11 12 12 11 10 10 10 10 8 5 4 5 6 7 7 6 7 8 6 6 5 5 4 3 3 3 3 3 3 3 3 4 4
13 13 13 13 12 11 11 11 11 11 9 10 11 11 10 9 8 8 9 7 3 4 6 8 6 6 5 6 7 5 5 5 4 3 3 2 2 2 2 3 3 4 4 4
11 12 11 11 11 10 8 9 10 11 10 9 10 10 10 9 8 7 6 5 5 6 5 5 5 6 7 7 5 5 4 4 3 2 2 2 2 2 3 3 3 3 4 4
10 10 10 10 10 9 8 8 8 9 9 9 9 9 8 7 5 6 5 3 5 7 6 4 6 9 9 5 4 4 4 3 3 2 2 2 2 2 2 3 3 3 4 5
9 9 9 8 8 9 8 6 6 6 7 7 7 7 8 7 4 3 4 7 8 8 5 5 8 8 7 4 4 3 3 2 2 2 2 2 2 2 2 2 3 3 4 5
8 8 8 8 8 6 6 7 8 7 7 6 6 5 4 4 5 5 6 7 8 7 5 5 6 6 4 3 3 3 2 2 1 1 1 1 1 1 1 2 2 3 4 5
6 5 5 5 5 5 5 6 5 5 5 5 4 4 4 5 6 6 5 6 6 6 4 3 3 4 3 3 2 2 2 2 2 1 1 0 0 1 1 2 3 3 4 4
6 6 5 5 4 4 5 5 5 4 5 5 5 4 4 5 6 6 6 5 4 4 3 2 2 3 3 3 2 2 2 1 1 1 1 1 2 2 2 3 3 4 5 6
Wind_Direction
233 246 228 234 236 204 197 199 201 228 229 249 237 207 188 172 156 146 147 148 153 157 152 143 140 141 140 137 140 142 142 146 153 146 143 144 145 144 142 150 160 153 139 141
260 256 243 251 247 234 225 216 221 238 251 249 203 148 152 159 154 152 153 150 145 138 133 134 133 131 128 125 127 130 132 129 123 118 116 119 122 119 110 99 91 89 87 75
244 272 296 255 230 226 223 210 194 216 231 184 162 159 163 158 152 151 147 137 129 122 117 114 115 118 120 120 116 115 113 111 112 112 108 99 99 93 87 80 79 78 78 82
217 208 235 244 248 229 230 234 219 227 213 176 155 119 96 114 134 133 128 122 116 110 103 95 96 97 97 97 100 103 103 103 102 100 95 88 85 80 77 77 79 81 77 79
170 228 269 283 253 210 226 257 235 214 175 141 128 101 73 77 106 112 111 109 105 103 100 94 92 96 94 89 89 91 90 90 91 96 94 89 87 82 79 83 79 74 69 66
172 222 248 258 278 352 107 271 253 188 173 161 150 150 154 117 107 106 103 101 101 99 96 91 89 94 93 89 86 84 84 83 81 85 89 89 88 84 81 86 84 80 71 62
211 236 264 277 308 86 205 257 301 186 174 167 171 140 128 119 108 106 102 101 101 98 93 91 92 93 90 87 84 85 87 83 77 76 82 85 82 78 84 87 84 81 77 64
200 226 256 310 330 233 249 305 327 131 132 122 117 118 121 118 113 109 105 101 101 98 93 86 90 96 92 85 84 85 82 77 72 66 75 84 84 78 79 88 88 81 77 63
212 235 261 266 254 267 262 260 238 146 134 133 129 127 125 121 116 111 109 106 104 103 96 83 81 94 96 88 87 85 78 73 70 69 65 69 80 84 77 78 88 85 80 71
261 268 273 281 284 285 258 204 140 137 136 134 128 126 124 120 117 115 112 110 108 103 98 88 81 84 91 91 89 86 81 74 70 73 69 63 65 72 83 85 90 88 81 69
256 278 300 303 319 322 87 105 112 116 122 126 126 125 123 120 119 117 112 107 106 105 102 95 87 82 80 84 91 88 82 78 77 77 81 76 69 59 68 61 93 105 94 86
259 279 270 312 347 89 103 108 114 118 115 114 121 124 123 121 119 117 115 112 108 104 102 97 91 84 74 77 91 95 89 83 85 88 87 91 93 76 56 65 67 72 76 78
270 314 13 25 58 85 101 105 109 114 117 116 114 119 120 117 114 113 114 115 115 112 107 101 93 83 71 78 89 94 98 95 90 92 96 98 99 102 91 59 55 55 53 52
69 53 51 52 76 91 100 102 103 105 108 112 115 115 116 114 114 114 116 117 114 109 105 101 94 80 65 82 90 91 92 94 96 90 92 93 95 95 99 96 68 41 31 30
56 77 93 91 88 95 104 108 107 107 109 110 113 116 117 116 114 112 112 111 106 101 100 99 92 74 64 90 95 95 95 94 91 90 89 90 90 88 83 77 68 47 24 12
94 90 92 94 96 99 104 108 109 110 111 111 110 108 109 109 106 102 102 109 110 107 103 99 91 76 81 96 98 93 94 104 101 95 89 87 84 82 75 67 57 42 23 6
113 108 108 106 101 99 101 106 110 113 112 111 111 110 109 106 102 97 94 94 99 98 97 98 93 83 86 93 98 99 96 99 98 91 86 85 82 78 73 65 46 23 2 348
98 104 113 116 115 108 103 102 105 107 110 111 110 108 109 111 111 109 106 102 94 82 69 78 90 89 87 90 95 98 99 97 94 93 87 79 75 68 61 45 21 5 350 349
97 100 101 101 104 106 105 103 102 104 107 108 106 104 104 106 110 111 108 105 104 97 74 77 95 91 90 96 101 96 99 98 92 84 81 76 67 51 37 22 8 360 353 352
96 97 97 94 94 99 101 102 102 101 104 108 107 105 104 108 114 112 104 94 89 111 115 102 96 94 93 99 101 96 99 100 96 86 75 64 53 39 28 19 9 2 359 356
99 98 97 97 95 94 100 105 105 103 102 106 111 114 114 110 109 109 108 101 79 97 107 107 105 105 101 104 99 99 98 95 88 78 68 56 45 35 25 18 12 8 4 359
101 101 99 100 100 94 91 99 106 106 103 101 105 111 113 111 106 95 89 117 132 125 115 109 110 115 116 108 101 100 96 92 85 77 65 51 40 28 20 14 9 4 359 353
103 102 100 101 104 102 93 95 106 113 115 117 122 125 126 129 130 127 123 131 132 127 120 118 123 120 113 104 102 97 94 88 81 69 57 47 44 35 20 10 4 357 351 348
100 102 103 105 104 103 98 93 94 101 106 109 117 128 131 126 105 89 123 137 134 125 118 127 125 119 111 106 101 96 90 85 77 67 60 57 50 36 23 9 358 351 346 342
100 104 108 112 110 112 115 109 99 97 99 100 100 104 107 118 129 133 129 132 132 124 120 126 124 118 111 111 108 102 95 95 99 100 82 68 45 24 359 344 339 335 334 332
100 103 104 110 119 126 126 121 118 122 120 116 109 105 104 105 116 120 121 128 131 130 131 131 125 117 115 118 121 122 120 115 112 117 148 168 242 292 308 314 319 318 318 318
95 96 97 91 87 107 122 127 131 135 135 134 128 124 123 122 122 124 124 127 130 133 136 135 132 134 135 139 143 147 152 162 180 201 217 232 246 260 273 284 291 298 303 308
Height
1473 1468 1468 1469 1468 1468 1472 1473 1478 1470 1466 1455 1451 1451 1453 1456 1458 1462 1465 1469 1472 1476 1479 1483 1486 1490 1493 1496 1499 1503 1507 1510 1513 1516 1519 1522 1524 1526 1528 1530 1531 1532 1533 1533
1473 1467 1466 1466 1462 1461 1462 1461 1463 1460 1458 1446 1447 1448 1451 1454 1456 1459 1463 1467 1471 1474 1478 1481 1484 1488 1491 1494 1497 1501 1504 1508 1511 1514 1516 1519 1521 1523 1525 1526 1527 1528 1528 1529
1481 1470 1468 1471 1459 1455 1454 1450 1452 1455 1448 1445 1447 1448 1450 1452 1455 1457 1461 1465 1469 1472 1476 1480 1483 1487 1489 1492 1496 1500 1503 1506 1509 1511 1514 1516 1518 1520 1521 1522 1523 1524 1524 1525
1482 1477 1482 1461 1447 1445 1446 1443 1442 1441 1441 1442 1444 1447 1450 1452 1455 1458 1462 1465 1469 1472 1476 1480 1483 1486 1489 1492 1495 1499 1502 1505 1508 1510 1512 1515 1516 1518 1519 1520 1521 1522 1522 1522
1484 1482 1471 1455 1447 1446 1447 1445 1439 1439 1440 1442 1444 1447 1452 1453 1455 1458 1463 1466 1470 1473 1477 1480 1484 1487 1490 1493 1496 1499 1502 1505 1508 1510 1512 1514 1516 1517 1518 1519 1520 1520 1521 1522
1481 1479 1475 1457 1445 1443 1446 1447 1437 1436 1437 1440 1443 1449 1453 1454 1456 1459 1464 1468 1472 1475 1479 1482 1486 1489 1491 1494 1498 1501 1504 1507 1509 1511 1513 1515 1516 1517 1519 1519 1520 1520 1521 1522
1477 1475 1464 1450 1445 1444 1454 1446 1437 1435 1435 1438 1440 1443 1450 1453 1457 1461 1466 1471 1476 1478 1482 1485 1489 1492 1495 1498 1501 1504 1507 1509 1511 1513 1515 1516 1517 1519 1519 1520 1521 1521 1521 1522
1474 1474 1465 1447 1445 1447 1444 1439 1437 1436 1436 1438 1441 1445 1450 1455 1459 1463 1468 1474 1479 1482 1485 1490 1493 1496 1498 1502 1505 1508 1510 1512 1514 1515 1517 1518 1519 1520 1521 1521 1522 1522 1522 1522
1465 1461 1449 1445 1444 1441 1440 1438 1437 1436 1436 1438 1442 1447 1452 1457 1462 1467 1473 1478 1484 1486 1489 1494 1498 1500 1502 1506 1509 1511 1513 1515 1516 1518 1519 1520 1521 1522 1522 1523 1522 1522 1522 1522
1457 1449 1445 1442 1439 1437 1435 1435 1435 1436 1437 1439 1443 1450 1455 1460 1465 1471 1477 1483 1488 1491 1494 1499 1503 1505 1507 1510 1512 1514 1516 1517 1519 1520 1521 1522 1522 1523 1523 1523 1523 1522 1522 1521
1453 1446 1442 1439 1437 1435 1434 1434 1435 1438 1440 1443 1447 1454 1459 1465 1470 1475 1481 1488 1492 1496 1499 1504 1507 1509 1512 1514 1516 1517 1518 1520 1521 1522 1523 1523 1523 1523 1523 1523 1522 1522 1521 1520
1450 1444 1443 1440 1438 1436 1435 1436 1438 1441 1445 1450 1453 1459 1465 1471 1476 1481 1486 1492 1497 1500 1504 1508 1511 1513 1515 1517 1519 1520 1521 1522 1522 1523 1523 1524 1524 1523 1522 1522 1521 1520 1519 1518
1446 1443 1441 1440 1439 1438 1439 1441 1443 1446 1449 1455 1462 1466 1471 1476 1482 1487 1493 1497 1500 1504 1508 1511 1514 1516 1518 1519 1521 1521 1522 1523 1523 1524 1524 1524 1524 1523 1522 1521 1520 1519 1517 1516
1445 1443 1442 1441 1441 1442 1443 1446 1449 1453 1457 1462 1468 1474 1478 1483 1488 1493 1497 1501 1505 1509 1512 1515 1517 1518 1520 1521 1522 1522 1523 1523 1524 1524 1523 1523 1523 1522 1521 1520 1519 1517 1516 1514
1447 1445 1444 1445 1446 1448 1450 1452 1456 1461 1466 1471 1476 1481 1485 1488 1493 1497 1502 1505 1509 1512 1515 1517 1519 1520 1522 1522 1523 1523 1523 1523 1523 1523 1522 1522 1521 1520 1519 1518 1517 1515 1514 1512
1449 1449 1450 1450 1452 1455 1457 1460 1463 1468 1473 1478 1483 1487 1491 1494 1498 1502 1506 1509 1512 1515 1517 1519 1520 1522 1522 1523 1523 1523 1523 1523 1522 1522 1521 1521 1520 1519 1518 1517 1515 1514 1512 1510
1451 1453 1455 1457 1459 1462 1465 1467 1471 1475 1480 1484 1488 1492 1495 1499 1502 1506 1509 1512 1515 1517 1519 1520 1521 1522 1522 1522 1523 1523 1522 1522 1522 1521 1520 1520 1519 1518 1517 1515 1514 1513 1511 1509
1455 1457 1459 1461 1464 1467 1471 1475 1478 1482 1486 1489 1493 1496 1500 1503 1506 1509 1512 1514 1517 1518 1520 1521 1522 1522 1522 1522 1522 1522 1522 1521 1521 1520 1520 1519 1518 1517 1516 1515 1514 1512 1510 1508
1460 1462 1465 1468 1471 1474 1477 1481 1484 1488 1491 1494 1497 1501 1504 1507 1509 1511 1514 1516 1518 1519 1521 1522 1522 1523 1523 1522 1522 1522 1522 1521 1521 1520 1519 1519 1518 1517 1516 1515 1513 1512 1509 1507
1465 1468 1471 1474 1477 1480 1483 1486 1490 1493 1496 1499 1502 1504 1507 1509 1512 1514 1516 1518 1519 1520 1521 1522 1522 1523 1523 1523 1522 1522 1521 1521 1521 1520 1519 1518 1518 1517 1516 1514 1513 1511 1508 1506
1470 1473 1477 1480 1483 1486 1489 1492 1494 1497 1500 1503 1505 1507 1509 1511 1513 1515 1517 1518 1520 1521 1522 1522 1522 1522 1523 1523 1522 1522 1521 1521 1521 1520 1519 1519 1518 1517 1515 1514 1512 1509 1507 1504
1476 1479 1482 1485 1488 1491 1494 1496 1499 1501 1503 1505 1507 1509 1511 1513 1515 1516 1518 1519 1520 1521 1522 1522 1522 1523 1523 1523 1523 1522 1522 1521 1521 1520 1519 1518 1517 1516 1514 1513 1510 1508 1506 1503
1481 1484 1487 1489 1492 1494 1497 1500 1502 1504 1506 1507 1509 1511 1512 1514 1516 1517 1518 1519 1520 1521 1522 1522 1523 1523 1523 1523 1523 1523 1522 1522 1521 1520 1519 1518 1517 1515 1513 1512 1509 1507 1504 1502
1485 1488 1491 1494 1496 1498 1500 1502 1504 1506 1508 1509 1511 1512 1514 1515 1516 1517 1518 1519 1520 1521 1522 1523 1523 1524 1524 1524 1523 1523 1522 1522 1521 1520 1519 1517 1516 1514 1513 1511 1509 1506 1504 1501
1490 1492 1494 1496 1498 1500 1502 1504 1506 1508 1509 1510 1512 1513 1514 1515 1516 1517 1518 1519 1521 1522 1522 1523 1524 1524 1524 1524 1524 1523 1523 1522 1521 1520 1519 1517 1516 1514 1512 1510 1508 1506 1503 1500
1493 1495 1497 1499 1501 1502 1504 1505 1507 1508 1510 1511 1512 1513 1514 1515 1516 1517 1519 1520 1521 1522 1523 1524 1524 1524 1525 1525 1524 1524 1523 1522 1521 1520 1519 1518 1516 1514 1512 1510 1508 1505 1503 1500
1495 1497 1499 1500 1502 1503 1505 1506 1507 1509 1510 1511 1512 1513 1514 1516 1517 1518 1520 1521 1522 1523 1524 1524 1525 1525 1525 1525 1525 1524 1524 1523 1522 1520 1519 1518 1516 1514 1512 1510 1508 1505 1502 1499